Tracking 31027 objects as of 19-Jul-2025
HD Live streaming from Space Station
objects crossing your sky now

SL-14 R/B

Track SL-14 R/B now!
10-day predictions


NORAD ID: 27061
Int'l Code: 2001-058G
Perigee: 1,420.6 km
Apogee: 1,489.7 km
Inclination: 82.5 °
Period: 114.8 minutes
Semi major axis: 7826 km
RCS: 6.0466 m2 (large)
Launch date: December 28, 2001
Source: Commonwealth of Independent States (former USSR) (CIS)
Launch site: PLESETSK MISSILE AND SPACE COMPLEX (PKMTR)

Note: This is a ROCKET BODY
Your satellite tracking list
COSMOS 2502
Track 1 satellite(s)




NASA's NSSDC Master Catalog

Two Line Element Set (TLE):
1 27061U 01058G   25199.61061167  .00000020  00000-0  58083-4 0  9994
2 27061  82.5461 144.8822 0044109 136.5872  35.7354 12.53951836 78211
Source of the keplerian elements: AFSPC